{"data":{"norad_id":65668,"intl_designator":"2025-211S","name":"STARLINK-35351","alt_names":[],"object_type":"PAYLOAD","status":"ACTIVE","operator":null,"country":"US","launch_date":"2025-09-19","launch_site_code":"AFWTR","launch_vehicle":null,"mission":null,"orbit_class":"UNKNOWN","rcs_meters":null,"size_class":null,"mass_kg":null,"dimensions":null,"purposes":["comms"],"wikipedia_slug":null,"has_3d_model":false,"image_url":null,"decayed_at":null,"tle_current":{"epoch":"2026-09-20T14:43:36.223680Z","epoch_age_seconds":98782,"freshness":"FRESH","line1":"1 65668U 25211S   26263.61361370  .00017879  00000+0  55485-3 0  9999","line2":"2 65668  97.2842 303.8873 0001298  90.6556 269.4836 15.33443559 56548","mean_motion":15.33443559,"eccentricity":0.0001298,"inclination_deg":97.2842,"raan_deg":303.8873,"arg_perigee_deg":90.6556,"mean_anomaly_deg":269.4836,"bstar":0.00055485,"rev_number":5654,"period_min":93.906292901909,"perigee_km":464.65915164051,"apogee_km":466.43577212681,"semimajor_km":6843.6844618837,"source":"CELESTRAK","updated_at":"2026-09-21T09:00:35.682484Z"}}}